{"data":{"norad_id":52817,"epoch":"2026-09-20T03:12:05.803200Z","epoch_age_seconds":53598,"freshness":"FRESH","line1":"1 52817U 22061A   26263.13340050 -.00000062  00000+0  00000+0 0  9996","line2":"2 52817   0.0594 349.6462 0001373 169.0122 241.3746  1.00271352 15680","mean_motion":1.00271352,"eccentricity":0.0001373,"inclination_deg":0.0594,"raan_deg":349.6462,"arg_perigee_deg":169.0122,"mean_anomaly_deg":241.3746,"bstar":0,"rev_number":1568,"period_min":1436.1031055012,"perigee_km":35780.927112881,"apogee_km":35792.50558161,"semimajor_km":42164.853347246,"source":"CELESTRAK","updated_at":"2026-09-20T09:00:35.303787Z"}}